Temp
38 38 37 38 38 37 37 38 38 39 41 41 42 44 46 46 46 48 49 50 51 52 53 53 53 53 51 51 50 50 48 48 45 40 42 43 44 44 45 44 46 45 47
37 36 36 37 37 36 36 37 38 38 40 41 41 45 45 46 46 47 47 50 51 51 53 53 52 51 50 50 50 49 49 48 44 39 38 39 41 43 41 41 42 43 43
35 35 34 35 35 35 35 36 37 37 38 40 40 43 44 44 45 46 47 47 52 53 53 52 52 51 49 49 49 49 48 46 44 41 37 38 37 39 37 38 38 37 41
34 33 32 33 34 34 35 35 35 37 37 38 39 43 44 44 44 45 46 47 51 52 53 52 52 50 50 49 48 48 47 45 43 41 38 36 35 37 37 34 33 36 36
32 31 32 33 34 34 34 34 35 36 37 37 39 43 44 43 44 44 45 46 49 50 51 51 51 50 49 50 48 47 46 43 42 39 35 35 33 33 34 34 34 33 33
30 30 32 32 32 32 33 33 34 34 35 36 37 41 41 42 44 44 45 44 46 49 49 49 49 46 47 49 49 48 47 42 40 38 35 36 34 35 35 35 32 31 30
29 30 30 31 31 31 32 32 32 32 33 33 37 41 40 40 42 43 45 45 45 47 47 46 46 47 47 48 47 47 47 47 46 43 39 37 35 36 35 33 33 33 31
28 29 30 30 30 30 30 30 31 32 32 32 37 39 38 40 42 43 45 44 45 45 46 45 44 44 45 44 41 39 38 40 41 42 41 38 37 38 38 37 34 29 30
27 28 29 30 29 29 29 29 30 30 31 34 38 38 38 38 41 43 44 42 41 40 42 43 43 43 44 43 38 35 35 36 41 42 41 41 41 40 37 35 31 30 27
27 28 29 30 29 28 28 28 30 31 33 36 37 37 38 38 41 43 44 39 36 37 39 41 44 43 43 42 37 36 33 34 35 34 34 36 38 39 39 35 33 25 23
28 28 29 30 30 29 28 29 30 31 33 34 35 36 36 39 41 43 42 38 37 37 38 39 42 44 43 42 40 36 33 33 33 31 30 30 29 29 29 29 29 27 21
26 27 28 30 31 31 29 28 31 32 32 33 33 34 36 37 40 41 41 40 41 38 38 40 41 42 41 39 37 38 36 34 31 30 29 28 27 26 26 27 27 27 28
25 25 28 30 31 31 29 29 30 31 32 33 33 33 34 35 37 40 40 42 41 38 39 40 41 40 40 39 38 37 35 31 30 28 26 25 25 25 26 26 27 27 27
24 25 27 27 29 31 31 31 30 31 32 32 32 32 33 34 35 37 39 39 41 39 39 38 37 37 36 35 33 32 31 31 29 26 24 25 25 23 23 24 22 22 20
24 25 25 27 28 29 31 30 31 34 34 32 33 33 33 32 34 36 35 35 35 36 35 32 30 29 28 27 28 28 28 28 25 25 24 23 24 24 23 22 18 17 14
22 25 25 26 28 30 31 30 37 37 38 37 37 35 35 36 37 37 37 37 38 37 32 29 28 27 27 27 26 26 27 26 24 23 22 22 21 20 19 20 19 16 14
22 24 26 28 28 30 31 30 30 34 37 36 36 37 37 37 37 38 37 37 36 34 29 28 26 26 26 26 26 25 23 24 24 23 21 19 20 22 18 18 16 15 12
24 27 25 26 28 30 32 32 32 31 31 32 36 37 38 38 37 37 36 34 29 30 28 26 25 25 25 25 24 23 23 22 21 20 18 18 17 17 15 15 13 8 7
23 24 25 27 30 33 33 33 32 32 32 32 32 36 38 38 37 36 34 30 28 26 26 26 26 26 25 25 24 23 22 21 19 17 16 15 15 15 12 12 16 21 17
25 28 29 28 29 31 32 32 32 32 32 32 32 32 34 34 30 29 29 29 28 27 26 26 26 26 25 24 23 23 23 21 19 18 16 15 15 16 15 15 15 12 11
25 26 28 25 26 30 31 32 32 32 32 32 32 33 36 30 29 29 28 28 28 27 27 26 25 25 24 24 24 22 21 21 20 19 17 15 15 15 17 16 14 12 8
25 23 22 22 24 27 31 32 32 32 32 32 32 34 35 30 29 28 28 28 28 28 28 26 25 25 24 24 23 22 21 20 19 18 17 15 17 16 15 12 10 9 9
21 19 20 20 22 27 32 32 32 32 32 32 32 31 30 29 28 28 27 28 27 27 27 26 25 24 25 25 24 24 22 20 20 19 17 16 17 16 14 11 10 10 9
19 18 18 20 21 26 32 32 32 33 32 32 31 30 29 28 28 27 27 27 27 26 26 26 25 24 24 24 24 23 22 21 21 19 17 16 14 19 15 13 10 9 8
18 18 19 19 21 24 31 32 32 32 32 30 29 29 28 28 27 27 26 26 26 26 25 25 25 25 24 24 23 23 25 26 18 18 17 16 16 16 15 13 9 8 11
18 18 20 20 22 24 32 31 31 31 30 29 29 28 28 27 27 26 26 26 26 26 25 25 25 25 25 24 24 27 30 29 26 25 19 18 16 14 13 8 6 7 7
MSLP
1023.47 1022.96 1022.43 1021.86 1021.44 1020.94 1020.36 1019.66 1019.07 1018.45 1017.92 1017.33 1016.72 1015.81 1015.05 1014.53 1014.22 1013.73 1013.24 1012.88 1012.30 1011.94 1011.87 1011.72 1012.08 1012.48 1012.80 1013.03 1013.40 1013.82 1014.49 1015.03 1016.04 1017.47 1017.65 1018.02 1018.34 1018.82 1019.25 1019.76 1020.20 1020.70 1021.21
1023.33 1022.77 1022.24 1021.66 1021.16 1020.55 1019.85 1019.20 1018.73 1018.22 1017.50 1016.88 1016.16 1015.24 1014.58 1014.02 1013.57 1013.16 1012.71 1012.09 1011.22 1011.03 1011.08 1011.20 1011.34 1011.76 1012.12 1012.41 1012.82 1013.18 1013.83 1014.52 1015.37 1016.82 1017.86 1018.15 1018.45 1018.98 1019.43 1019.92 1020.47 1021.02 1021.43
1023.26 1022.72 1022.00 1021.39 1020.77 1020.13 1019.47 1018.88 1018.38 1017.73 1016.95 1016.22 1015.66 1014.79 1014.17 1013.65 1013.10 1012.70 1012.18 1011.44 1010.28 1010.12 1010.11 1010.29 1010.54 1010.94 1011.43 1011.79 1012.10 1012.73 1013.35 1014.09 1014.90 1016.03 1017.40 1018.08 1018.96 1019.20 1019.69 1020.42 1020.88 1021.49 1021.76
1023.10 1022.50 1021.86 1021.22 1020.55 1019.86 1019.23 1018.58 1017.93 1017.15 1016.39 1015.72 1015.06 1014.28 1013.61 1013.00 1012.46 1011.91 1011.39 1010.57 1009.21 1008.89 1009.15 1009.36 1009.63 1010.18 1010.68 1011.09 1011.60 1012.25 1012.88 1013.72 1014.73 1015.58 1016.76 1017.84 1018.59 1019.29 1019.67 1020.48 1021.26 1021.75 1022.17
1022.76 1022.10 1021.41 1020.73 1020.11 1019.40 1018.71 1018.02 1017.32 1016.63 1015.88 1015.24 1014.44 1013.47 1012.88 1012.32 1011.66 1011.13 1010.61 1009.98 1009.01 1008.37 1008.04 1008.68 1008.89 1009.26 1009.82 1010.41 1010.69 1011.68 1012.43 1013.44 1014.32 1015.33 1016.47 1017.52 1018.32 1019.06 1019.49 1020.21 1021.21 1021.92 1022.59
1022.48 1021.76 1021.01 1020.28 1019.59 1018.88 1018.16 1017.48 1016.81 1016.09 1015.37 1014.68 1013.82 1012.73 1012.06 1011.52 1010.90 1010.46 1010.00 1009.31 1008.36 1007.74 1007.73 1007.88 1008.37 1008.66 1009.35 1009.92 1010.51 1011.10 1011.61 1012.86 1013.87 1014.78 1015.92 1016.70 1017.48 1018.11 1019.03 1019.71 1020.77 1021.95 1022.57
1022.16 1021.43 1020.71 1019.97 1019.30 1018.63 1017.90 1017.15 1016.35 1015.55 1014.80 1014.04 1012.98 1011.92 1011.31 1010.67 1010.10 1009.55 1009.03 1008.48 1007.68 1006.97 1006.88 1007.24 1007.71 1008.33 1009.01 1009.58 1010.17 1010.98 1011.74 1012.42 1012.88 1013.56 1014.75 1015.92 1016.85 1017.29 1018.06 1019.47 1020.11 1021.26 1022.03
1021.68 1021.01 1020.27 1019.53 1018.84 1018.08 1017.36 1016.60 1015.76 1014.99 1014.25 1013.32 1012.11 1011.20 1010.59 1009.76 1009.24 1008.68 1008.04 1007.57 1006.97 1006.51 1006.56 1006.83 1007.48 1008.18 1008.58 1009.24 1010.50 1011.75 1012.36 1012.76 1013.22 1013.73 1014.43 1015.22 1015.91 1017.00 1017.71 1018.63 1019.84 1021.41 1022.43
1021.40 1020.62 1019.83 1019.11 1018.27 1017.47 1016.70 1015.89 1015.09 1014.37 1013.48 1012.42 1011.35 1010.49 1009.75 1009.00 1008.43 1007.92 1007.32 1006.92 1006.57 1006.38 1006.54 1006.76 1007.03 1007.85 1008.58 1009.43 1010.72 1011.86 1012.96 1013.61 1013.74 1014.13 1014.55 1015.43 1016.06 1016.95 1017.90 1018.80 1020.30 1021.27 1022.70
1021.16 1020.23 1019.41 1018.64 1017.75 1016.88 1016.08 1015.27 1014.46 1013.71 1012.63 1011.61 1010.60 1009.88 1009.21 1008.31 1007.54 1006.86 1006.55 1006.60 1006.61 1006.58 1006.79 1007.10 1007.36 1007.98 1008.80 1009.54 1010.74 1011.77 1013.08 1014.20 1014.47 1015.10 1015.84 1016.76 1017.06 1017.65 1018.34 1018.82 1019.88 1021.22 1022.46
1020.89 1019.92 1018.88 1017.96 1017.01 1016.21 1015.40 1014.60 1013.87 1012.90 1011.91 1011.00 1010.05 1009.39 1008.78 1007.94 1007.03 1006.54 1006.40 1006.42 1006.53 1006.74 1007.06 1007.46 1007.98 1008.42 1009.24 1010.10 1010.94 1012.00 1012.98 1014.41 1015.41 1015.99 1016.88 1017.76 1018.44 1018.97 1019.53 1019.97 1020.48 1021.09 1022.14
1020.56 1019.49 1018.34 1017.19 1016.35 1015.44 1014.80 1013.93 1013.06 1012.16 1011.27 1010.26 1009.58 1008.93 1008.48 1007.98 1007.39 1006.89 1006.73 1006.73 1006.74 1006.91 1007.18 1007.91 1008.46 1009.19 1010.03 1010.76 1011.76 1012.83 1013.70 1014.83 1015.96 1016.72 1017.47 1018.56 1019.30 1020.05 1020.62 1020.96 1021.39 1021.79 1022.09
1020.08 1018.88 1017.69 1016.70 1015.76 1014.79 1014.06 1013.16 1012.30 1011.50 1010.57 1009.74 1009.15 1008.66 1008.26 1007.95 1007.52 1007.12 1006.97 1006.85 1006.97 1007.34 1007.77 1008.27 1009.24 1009.94 1010.79 1011.77 1012.71 1013.64 1014.53 1015.37 1016.34 1017.27 1018.38 1019.46 1020.17 1020.80 1021.19 1021.66 1022.19 1022.60 1023.07
1019.58 1018.38 1017.27 1016.29 1015.10 1013.96 1013.33 1012.60 1011.81 1010.90 1009.94 1009.34 1008.88 1008.47 1008.17 1007.96 1007.69 1007.38 1007.25 1007.42 1007.46 1007.90 1008.60 1009.54 1010.26 1010.86 1011.81 1012.82 1013.99 1014.80 1015.39 1016.10 1016.92 1018.00 1019.13 1020.11 1020.78 1021.37 1021.87 1022.33 1022.97 1023.49 1024.00
1019.22 1018.04 1016.91 1015.83 1014.68 1013.50 1012.59 1012.01 1011.18 1010.19 1009.52 1009.08 1008.69 1008.34 1008.09 1007.94 1007.87 1007.85 1008.00 1008.19 1008.26 1008.63 1009.34 1010.48 1011.44 1012.38 1013.22 1014.14 1014.97 1015.68 1016.35 1017.20 1017.99 1018.85 1019.75 1020.57 1021.26 1021.90 1022.66 1023.14 1023.60 1024.04 1024.50
1018.91 1017.62 1016.62 1015.39 1014.18 1013.03 1012.05 1011.12 1010.32 1009.58 1008.95 1008.59 1008.33 1008.26 1008.06 1007.95 1007.97 1008.16 1008.49 1008.76 1009.00 1009.42 1010.23 1011.16 1012.24 1013.09 1013.86 1014.73 1015.59 1016.45 1017.14 1018.01 1018.83 1019.53 1020.34 1021.00 1021.84 1022.52 1023.14 1023.71 1024.02 1024.62 1025.29
1018.59 1017.32 1016.21 1015.07 1013.89 1012.67 1011.64 1010.96 1009.86 1009.03 1008.74 1008.38 1008.20 1008.13 1008.10 1008.14 1008.32 1008.55 1009.05 1009.56 1010.08 1010.49 1011.12 1012.16 1013.01 1013.87 1014.71 1015.53 1016.23 1017.04 1017.99 1018.84 1019.44 1020.12 1020.84 1021.68 1022.34 1022.81 1023.47 1024.11 1024.73 1025.28 1025.72
1018.02 1016.93 1015.95 1014.87 1013.62 1012.36 1011.28 1010.59 1009.90 1009.40 1008.88 1008.60 1008.40 1008.30 1008.38 1008.58 1008.94 1009.36 1009.79 1010.40 1011.15 1011.82 1012.28 1013.02 1013.89 1014.70 1015.54 1016.21 1016.99 1017.76 1018.63 1019.37 1020.11 1020.90 1021.70 1022.32 1022.83 1023.37 1024.05 1024.60 1025.19 1025.63 1026.01
1017.63 1016.49 1015.48 1014.37 1013.19 1011.93 1010.90 1010.30 1009.79 1009.37 1008.97 1008.81 1008.73 1008.67 1008.85 1009.16 1009.73 1010.22 1010.69 1011.23 1011.92 1012.62 1013.27 1013.98 1014.69 1015.39 1016.08 1016.79 1017.62 1018.34 1019.03 1019.85 1020.64 1021.44 1022.29 1022.86 1023.38 1023.81 1024.40 1024.91 1025.42 1025.88 1026.34
1017.15 1016.00 1014.98 1014.01 1012.91 1011.68 1010.72 1010.04 1009.64 1009.29 1009.00 1008.96 1008.97 1009.11 1009.37 1009.84 1010.51 1011.12 1011.63 1012.12 1012.64 1013.27 1013.95 1014.66 1015.39 1015.99 1016.63 1017.36 1018.16 1018.87 1019.55 1020.42 1021.21 1021.93 1022.57 1023.12 1023.67 1024.08 1024.65 1025.16 1025.65 1026.17 1026.69
1016.65 1015.59 1014.73 1013.91 1012.84 1011.68 1010.64 1009.90 1009.51 1009.22 1009.05 1009.10 1009.22 1009.39 1009.73 1010.37 1011.09 1011.72 1012.27 1012.77 1013.25 1013.88 1014.54 1015.19 1015.90 1016.53 1017.17 1017.84 1018.52 1019.26 1019.97 1020.80 1021.54 1022.16 1022.75 1023.39 1023.88 1024.42 1024.76 1025.24 1025.76 1026.23 1026.72
1016.47 1015.74 1014.84 1013.88 1012.78 1011.56 1010.36 1009.67 1009.37 1009.14 1009.08 1009.24 1009.49 1009.73 1010.24 1011.04 1011.70 1012.28 1012.84 1013.37 1013.89 1014.42 1014.98 1015.53 1016.29 1016.98 1017.54 1018.12 1018.79 1019.53 1020.34 1021.08 1021.74 1022.38 1023.05 1023.66 1024.12 1024.61 1025.00 1025.49 1025.94 1026.35 1026.76
1016.67 1015.80 1014.79 1013.72 1012.67 1011.38 1010.08 1009.51 1009.24 1009.12 1009.16 1009.40 1009.71 1010.24 1010.84 1011.61 1012.25 1012.83 1013.41 1013.91 1014.35 1014.90 1015.46 1016.04 1016.73 1017.46 1018.04 1018.59 1019.15 1019.67 1020.39 1021.20 1021.82 1022.44 1023.16 1023.87 1024.39 1024.82 1025.23 1025.74 1026.14 1026.68 1027.05
1016.73 1015.82 1014.79 1013.61 1012.48 1011.21 1009.89 1009.41 1009.21 1009.15 1009.27 1009.60 1010.07 1010.66 1011.29 1012.02 1012.71 1013.34 1013.93 1014.45 1014.92 1015.46 1015.99 1016.59 1017.17 1017.74 1018.41 1019.02 1019.59 1020.18 1020.79 1021.43 1022.04 1022.67 1023.28 1023.96 1024.51 1024.91 1025.37 1025.83 1026.29 1026.65 1026.91
1016.77 1015.73 1014.65 1013.56 1012.42 1011.20 1009.92 1009.46 1009.28 1009.31 1009.53 1009.96 1010.49 1011.13 1011.81 1012.47 1013.16 1013.87 1014.47 1014.98 1015.46 1015.93 1016.54 1017.11 1017.63 1018.20 1018.75 1019.36 1020.00 1020.53 1021.00 1021.63 1022.37 1022.94 1023.50 1024.04 1024.52 1025.05 1025.54 1025.99 1026.41 1026.75 1026.89
1016.80 1015.73 1014.58 1013.45 1012.32 1011.22 1010.01 1009.63 1009.50 1009.64 1009.98 1010.45 1010.98 1011.61 1012.25 1012.92 1013.66 1014.35 1014.92 1015.44 1015.96 1016.52 1017.05 1017.60 1018.17 1018.69 1019.26 1019.85 1020.40 1020.77 1021.24 1021.79 1022.41 1023.00 1023.63 1024.12 1024.68 1025.24 1025.64 1026.08 1026.52 1026.80 1027.07
Wind_Speed
11 11 12 11 11 11 10 10 10 12 12 11 11 12 12 13 11 11 11 14 15 11 10 10 11 9 7 7 6 5 5 4 3 1 2 1 3 6 5 5 7 6 6
12 13 13 12 12 12 12 11 11 12 12 11 11 12 12 13 12 12 13 14 13 12 11 11 12 7 9 8 7 8 6 5 4 5 2 1 2 5 5 7 5 4 4
12 13 13 13 13 13 13 13 12 12 12 11 11 13 13 14 13 12 13 15 16 13 12 11 10 11 10 8 8 8 7 5 3 4 4 2 2 2 4 5 5 4 3
13 13 13 13 13 13 12 13 12 12 12 12 13 14 14 15 14 13 14 14 15 12 13 12 12 12 12 11 9 9 7 7 4 4 3 3 3 2 3 4 4 2 3
14 14 14 14 14 14 13 12 13 12 12 13 14 15 15 15 12 12 12 13 14 10 11 9 11 13 14 13 9 9 9 7 7 5 4 3 3 5 7 4 3 4 2
14 15 15 15 14 14 14 14 13 14 13 13 14 14 15 11 19 22 19 13 13 15 11 10 9 14 14 18 15 16 14 10 8 6 4 4 4 5 4 8 6 4 3
14 14 14 14 14 14 14 14 14 14 13 14 15 14 14 14 21 23 23 11 12 9 8 8 8 7 12 9 13 14 14 14 11 9 8 5 7 9 11 8 5 3 3
15 15 14 14 14 14 14 14 14 13 13 13 14 13 14 12 21 23 21 12 10 7 9 10 9 9 10 12 12 9 9 6 5 4 6 7 7 10 9 5 7 7 6
15 15 15 15 16 15 15 14 14 13 13 13 13 13 13 13 20 21 17 9 4 4 5 7 10 10 20 23 14 13 11 8 12 15 16 15 19 19 13 9 6 7 3
15 16 16 16 16 15 15 14 13 12 14 11 13 12 15 14 19 22 17 3 4 3 5 6 16 14 25 25 14 14 14 9 12 13 12 14 14 14 12 5 8 5 4
16 17 18 18 17 14 13 12 13 13 13 13 12 10 10 10 6 5 2 3 4 5 6 6 7 23 21 22 19 11 15 14 16 12 10 8 8 8 7 6 6 5 4
16 17 17 18 15 11 12 12 13 12 12 11 9 7 4 6 8 4 1 5 9 7 8 6 12 22 22 23 16 27 27 18 9 9 9 8 8 7 6 7 8 8 7
16 17 17 17 16 12 11 12 10 10 9 8 6 5 4 3 3 3 3 10 14 8 7 16 23 24 25 21 27 26 20 10 9 9 9 7 5 6 8 7 9 10 9
16 17 15 14 15 12 8 8 8 8 7 6 5 4 3 2 2 1 3 6 16 13 21 14 15 18 19 19 15 12 8 8 8 9 8 7 4 4 6 4 5 5 5
16 15 15 12 12 12 9 8 9 9 7 5 4 3 2 1 0 5 5 4 8 13 15 10 9 9 10 9 8 9 8 8 9 8 8 7 7 7 5 3 2 2 4
15 12 12 11 11 10 8 9 13 13 14 10 10 5 2 3 9 12 12 14 20 22 10 9 9 8 9 9 9 8 8 10 7 8 7 7 7 6 6 4 4 5 4
15 14 11 13 10 10 8 8 9 8 8 7 4 4 5 8 12 16 20 20 19 15 9 8 8 8 8 8 8 7 7 6 7 6 7 7 7 6 8 5 5 4 2
15 24 11 10 11 10 8 7 6 5 5 2 3 2 9 13 17 20 19 15 8 9 7 8 8 8 7 8 7 8 8 7 7 7 6 6 5 6 5 5 4 3 2
13 11 11 11 10 13 8 7 5 4 3 1 1 3 10 17 19 17 14 6 7 7 7 8 7 7 7 7 7 7 7 7 7 7 5 5 5 5 4 4 4 8 6
13 22 18 10 10 10 7 6 5 3 1 1 2 3 5 8 6 6 6 6 7 7 7 7 6 7 7 8 8 7 7 7 7 6 5 5 4 5 5 5 4 4 2
10 11 20 9 9 9 8 7 4 3 1 2 3 5 11 7 6 6 5 5 6 6 7 7 7 7 7 7 7 7 7 7 6 6 6 5 5 5 4 4 4 3 3
10 10 10 9 9 10 8 5 3 2 2 4 4 7 18 7 6 6 6 6 6 6 6 7 7 6 6 7 7 7 7 7 6 6 6 5 5 5 3 3 3 2 2
10 10 10 9 9 13 8 4 2 2 3 4 6 7 7 7 6 6 6 6 6 7 6 7 7 7 6 6 6 6 7 7 6 6 7 6 5 4 4 3 3 3 2
10 10 10 10 9 9 6 3 2 3 4 5 6 7 8 8 7 8 6 6 7 7 6 6 6 8 8 6 6 6 6 6 6 6 7 6 4 7 4 3 3 2 2
10 10 10 9 9 8 6 2 1 3 4 6 7 7 8 8 8 7 7 6 7 7 7 7 6 9 10 10 8 8 11 16 8 8 5 6 6 6 4 3 3 1 2
11 11 9 8 8 8 4 1 2 4 6 6 7 8 9 9 8 8 7 7 7 7 8 7 8 11 12 9 10 13 17 17 12 14 6 5 5 4 4 4 4 2 2
Wind_Direction
321 320 316 315 310 301 299 295 297 300 293 284 290 294 302 299 291 286 278 271 257 250 238 214 219 202 204 190 179 172 168 152 133 49 87 102 117 136 136 123 143 136 150
319 317 312 311 307 304 305 301 302 293 290 285 293 293 299 298 290 291 283 283 245 245 235 221 216 193 199 193 181 178 179 162 139 140 142 117 94 153 131 123 122 113 125
315 311 309 308 305 304 304 302 299 293 290 291 294 290 294 297 286 280 278 279 254 238 228 216 211 194 194 187 183 177 172 153 134 130 140 113 97 120 99 85 118 99 103
310 307 304 303 303 299 298 295 295 296 295 295 288 284 293 296 288 282 281 279 265 229 224 215 212 203 201 186 180 175 161 151 146 134 108 117 124 103 105 135 129 116 118
310 308 305 304 302 300 299 298 297 295 294 291 286 284 295 293 287 284 283 284 278 234 214 203 201 191 189 192 165 170 160 154 155 137 120 131 134 152 167 147 115 118 81
309 305 305 305 305 304 302 303 299 296 293 291 287 281 296 286 286 286 283 279 286 234 210 196 184 179 179 177 175 169 160 154 157 147 144 158 155 145 137 149 132 145 172
305 302 302 302 300 299 299 298 295 293 294 288 288 289 290 284 282 286 281 275 281 217 193 182 172 175 167 169 158 154 161 164 166 155 161 165 157 172 145 141 135 123 103
307 305 304 303 300 298 296 294 293 291 292 290 286 288 289 283 283 283 283 276 259 205 188 170 160 151 141 127 112 101 91 77 109 125 143 135 123 141 142 135 121 100 89
308 307 307 305 302 300 297 296 292 292 292 289 287 292 286 289 281 279 277 267 219 168 143 144 136 141 138 130 120 110 97 91 99 105 108 120 134 129 123 118 125 132 108
310 309 306 304 299 294 293 294 291 287 288 289 288 290 291 289 285 273 261 174 138 122 104 121 141 142 142 134 127 125 115 112 108 94 83 82 89 109 112 91 139 125 120
310 307 308 307 300 291 289 290 291 291 290 287 292 291 292 301 330 6 141 146 153 128 125 119 131 137 137 131 126 126 126 123 108 99 93 84 77 71 66 68 75 111 114
308 307 305 308 305 294 291 289 290 291 287 291 288 287 280 309 329 329 224 173 150 133 124 119 128 130 127 121 114 125 121 113 110 108 102 92 90 83 75 76 76 74 68
309 306 307 309 304 296 289 288 296 291 285 290 287 288 291 301 303 288 233 161 137 113 116 122 127 122 120 114 123 121 117 113 112 104 102 96 88 104 100 87 79 80 72
309 309 306 304 302 298 292 288 288 285 287 291 291 282 283 285 323 339 113 130 120 111 114 113 112 106 108 111 107 103 100 102 112 113 107 105 92 90 89 88 95 92 84
310 308 305 301 299 297 286 287 289 284 273 283 289 280 264 245 182 118 109 118 124 120 113 106 104 105 103 102 97 98 97 101 107 110 112 113 105 100 91 78 69 64 83
308 309 306 305 301 296 296 301 304 302 311 292 283 247 257 175 147 129 127 128 122 121 111 114 109 107 109 113 111 107 100 109 109 111 107 108 109 107 104 90 82 85 98
306 306 307 310 301 299 300 303 311 324 317 331 293 231 171 138 131 126 118 112 113 111 104 103 104 108 110 108 109 109 110 105 108 103 109 113 116 116 115 99 92 98 76
310 309 307 303 300 300 296 299 303 308 317 333 335 171 144 131 127 119 110 97 86 81 93 103 106 107 110 111 109 113 112 109 101 105 105 109 108 116 111 108 105 112 84
312 306 304 301 301 305 297 298 298 298 292 327 24 125 141 131 120 104 97 96 106 100 100 100 104 111 109 107 108 108 112 114 115 115 111 115 114 115 105 114 129 121 105
306 309 312 307 305 304 305 300 299 292 262 140 105 100 122 108 96 85 86 101 106 106 107 111 111 110 111 113 112 117 115 113 116 117 119 120 120 116 114 115 101 96 78
307 310 314 307 300 301 304 299 289 277 201 133 117 126 125 113 108 103 105 104 109 112 116 116 114 111 113 116 118 116 116 119 121 122 121 120 120 116 115 109 106 99 106
317 311 308 303 300 297 298 291 278 249 164 138 126 130 120 103 102 102 99 100 104 103 110 116 113 116 123 125 124 121 124 127 125 124 123 125 122 121 110 106 98 87 78
317 310 308 304 300 302 297 287 263 199 148 137 129 121 115 109 106 101 105 108 109 110 108 110 114 108 104 106 111 125 132 138 139 133 131 131 129 122 118 113 114 88 73
316 312 308 305 303 302 297 283 261 183 141 134 125 120 117 114 108 103 102 103 103 101 101 105 109 116 113 107 105 104 109 114 122 130 125 131 136 132 113 106 110 101 103
319 317 313 312 305 302 300 288 180 134 124 121 120 116 115 112 107 104 103 103 104 105 102 106 107 113 112 114 116 118 132 132 124 126 121 126 127 132 127 122 117 91 85
325 322 321 318 315 312 303 283 111 108 114 116 119 120 120 115 112 111 109 107 105 103 106 105 110 114 114 113 122 136 136 138 138 142 128 122 125 123 119 114 112 112 107